When you browse on this site, cookies collect data to enhance your experience and personalize the content and advertising you see.
Visit our Privacy Policy to learn more. By continuing to use the site, you agree to this use of cookies and data.
  • In Hungary
  • List of Countries
  • For 7 days
  • Water Temperature
  • Satellite Maps
  • Weather Map
  • News
  • Weather Widgets
  • user-avatar
    Login

    Hourly Weather Belpasso

    Today, 15 December, Saturday

    Time Temperature Precipitation Wind Pressure Humidity
    00:00 +9°C° 0 mm 2 mps 704 mmHg 82%
    01:00 +8°C° 0 mm 2 mps 704 mmHg 83%
    02:00 +8°C° 0 mm 2 mps 704 mmHg 82%
    03:00 +8°C° 0 mm 2 mps 704 mmHg 81%
    04:00 +8°C° 0 mm 2 mps 704 mmHg 80%
    05:00 +8°C° 0 mm 2 mps 704 mmHg 80%
    06:00 +7°C° 0 mm 2 mps 704 mmHg 80%
    07:00 +8°C° 0 mm 1 mps 704 mmHg 80%
    08:00 +9°C° 0 mm 2 mps 705 mmHg 76%
    09:00 +10°C° 0 mm 2 mps 705 mmHg 72%
    10:00 +12°C° 0 mm 3 mps 706 mmHg 68%
    11:00 +12°C° 0.1 mm 3 mps 706 mmHg 68%
    12:00 +12°C° 0.1 mm 4 mps 706 mmHg 68%
    13:00 +12°C° 0 mm 3 mps 706 mmHg 67%
    14:00 +12°C° 0 mm 4 mps 707 mmHg 68%
    15:00 +11°C° 0 mm 4 mps 707 mmHg 68%
    16:00 +9°C° 0 mm 5 mps 707 mmHg 69%
    17:00 +8°C° 0 mm 5 mps 707 mmHg 71%
    18:00 +7°C° 0 mm 5 mps 708 mmHg 72%
    19:00 +6°C° 0 mm 5 mps 708 mmHg 74%
    20:00 +6°C° 0 mm 5 mps 708 mmHg 75%
    21:00 +5°C° 0 mm 4 mps 709 mmHg 75%
    22:00 +5°C° 0 mm 4 mps 709 mmHg 76%
    23:00 +4°C° 0 mm 4 mps 709 mmHg 76%

    Tomorrow, 16 December, Sunday

    Time Temperature Precipitation Wind Pressure Humidity
    00:00 +4°C° 0 mm 4 mps 709 mmHg 77%
    01:00 +4°C° 0 mm 4 mps 709 mmHg 77%
    02:00 +4°C° 0 mm 4 mps 710 mmHg 78%
    03:00 +4°C° 0 mm 4 mps 710 mmHg 78%
    04:00 +4°C° 0 mm 4 mps 710 mmHg 79%
    05:00 +4°C° 0 mm 3 mps 710 mmHg 79%
    06:00 +3°C° 0 mm 3 mps 711 mmHg 79%
    07:00 +3°C° 0 mm 3 mps 711 mmHg 80%
    08:00 +5°C° 0 mm 3 mps 712 mmHg 73%
    09:00 +7°C° 0 mm 3 mps 712 mmHg 66%
    10:00 +9°C° 0 mm 3 mps 713 mmHg 60%
    11:00 +10°C° 0 mm 3 mps 713 mmHg 55%
    12:00 +11°C° 0 mm 3 mps 713 mmHg 51%
    13:00 +13°C° 0 mm 2 mps 713 mmHg 47%
    14:00 +12°C° 0 mm 2 mps 713 mmHg 50%
    15:00 +12°C° 0 mm 2 mps 713 mmHg 53%
    16:00 +10°C° 0 mm 2 mps 713 mmHg 56%
    17:00 +9°C° 0 mm 2 mps 713 mmHg 61%
    18:00 +8°C° 0 mm 2 mps 713 mmHg 67%
    19:00 +8°C° 0 mm 1 mps 713 mmHg 72%
    20:00 +8°C° 0 mm 1 mps 713 mmHg 73%
    21:00 +8°C° 0 mm 1 mps 713 mmHg 74%
    22:00 +8°C° 0 mm 1 mps 713 mmHg 76%
    23:00 +7°C° 0 mm 2 mps 713 mmHg 76%

    Day after tomorrow, 17 December, Monday

    Time Temperature Precipitation Wind Pressure Humidity
    00:00 +7°C° 0 mm 2 mps 713 mmHg 77%
    01:00 +7°C° 0 mm 2 mps 713 mmHg 78%
    02:00 +8°C° 0 mm 2 mps 712 mmHg 79%
    03:00 +8°C° 0 mm 3 mps 712 mmHg 81%
    04:00 +8°C° 0 mm 3 mps 711 mmHg 83%
    05:00 +8°C° 0 mm 3 mps 711 mmHg 83%
    06:00 +7°C° 0 mm 4 mps 711 mmHg 82%
    07:00 +7°C° 0 mm 4 mps 711 mmHg 82%
    08:00 +10°C° 0 mm 4 mps 711 mmHg 77%
    09:00 +12°C° 0 mm 5 mps 711 mmHg 71%
    10:00 +13°C° 0 mm 5 mps 711 mmHg 65%
    11:00 +14°C° 0 mm 6 mps 711 mmHg 63%
    12:00 +14°C° 0 mm 7 mps 711 mmHg 62%
    13:00 +15°C° 0 mm 7 mps 710 mmHg 61%
    14:00 +14°C° 0.1 mm 7 mps 710 mmHg 63%
    15:00 +12°C° 0.1 mm 7 mps 710 mmHg 65%
    16:00 +10°C° 0.1 mm 7 mps 710 mmHg 68%
    17:00 +10°C° 0 mm 6 mps 710 mmHg 70%
    18:00 +9°C° 0 mm 6 mps 710 mmHg 72%
    19:00 +8°C° 0 mm 6 mps 710 mmHg 75%
    20:00 +8°C° 0 mm 6 mps 710 mmHg 74%
    21:00 +7°C° 0 mm 6 mps 710 mmHg 73%
    22:00 +7°C° 0 mm 6 mps 710 mmHg 72%
    23:00 +7°C° 0.1 mm 6 mps 710 mmHg 73%

    18 December, Tuesday

    Time Temperature Precipitation Wind Pressure Humidity
    00:00 +7°C° 0.1 mm 6 mps 710 mmHg 73%
    01:00 +7°C° 0.1 mm 6 mps 710 mmHg 74%
    02:00 +5°C° 0 mm 6 mps 710 mmHg 75%
    03:00 +5°C° 0 mm 6 mps 710 mmHg 76%
    04:00 +5°C° 0 mm 6 mps 709 mmHg 77%
    05:00 +6°C° 0.1 mm 5 mps 710 mmHg 77%
    06:00 +6°C° 0.1 mm 5 mps 710 mmHg 77%
    07:00 +6°C° 0.1 mm 5 mps 711 mmHg 77%
    08:00 +7°C° 0 mm 5 mps 711 mmHg 72%
    09:00 +8°C° 0 mm 6 mps 712 mmHg 67%
    10:00 +8°C° 0 mm 6 mps 713 mmHg 62%
    11:00 +9°C° 0 mm 6 mps 713 mmHg 59%
    12:00 +9°C° 0 mm 6 mps 713 mmHg 57%
    13:00 +10°C° 0 mm 6 mps 713 mmHg 54%
    14:00 +9°C° 0 mm 6 mps 713 mmHg 56%
    15:00 +8°C° 0 mm 5 mps 713 mmHg 59%
    16:00 +8°C° 0 mm 5 mps 714 mmHg 62%
    17:00 +7°C° 0 mm 4 mps 714 mmHg 65%
    18:00 +6°C° 0 mm 4 mps 714 mmHg 68%
    19:00 +5°C° 0 mm 4 mps 715 mmHg 71%
    20:00 +5°C° 0 mm 3 mps 715 mmHg 72%
    21:00 +5°C° 0 mm 3 mps 715 mmHg 73%
    22:00 +4°C° 0 mm 3 mps 716 mmHg 74%
    23:00 +4°C° 0 mm 3 mps 715 mmHg 75%

    19 December, Wednesday

    Time Temperature Precipitation Wind Pressure Humidity
    00:00 +5°C° 0 mm 2 mps 715 mmHg 75%
    01:00 +5°C° 0 mm 2 mps 715 mmHg 75%
    02:00 +5°C° 0 mm 2 mps 715 mmHg 74%
    03:00 +5°C° 0 mm 2 mps 715 mmHg 73%
    04:00 +5°C° 0 mm 2 mps 715 mmHg 72%
    05:00 +5°C° 0 mm 2 mps 715 mmHg 70%
    06:00 +5°C° 0 mm 2 mps 716 mmHg 69%
    07:00 +5°C° 0 mm 2 mps 716 mmHg 67%
    08:00 +8°C° 0 mm 1 mps 716 mmHg 59%
    09:00 +10°C° 0 mm 1 mps 717 mmHg 51%
    10:00 +12°C° 0 mm 1 mps 717 mmHg 43%
    11:00 +12°C° 0 mm 1 mps 717 mmHg 41%
    12:00 +13°C° 0 mm 1 mps 716 mmHg 38%
    13:00 +14°C° 0 mm 2 mps 716 mmHg 36%
    14:00 +13°C° 0 mm 2 mps 716 mmHg 41%
    15:00 +13°C° 0 mm 2 mps 716 mmHg 46%
    16:00 +12°C° 0 mm 2 mps 715 mmHg 51%
    17:00 +10°C° 0 mm 1 mps 715 mmHg 56%
    18:00 +9°C° 0 mm 1 mps 715 mmHg 60%
    19:00 +8°C° 0 mm 1 mps 715 mmHg 65%
    20:00 +8°C° 0 mm 1 mps 716 mmHg 64%
    21:00 +7°C° 0 mm 1 mps 716 mmHg 63%
    22:00 +7°C° 0 mm 1 mps 716 mmHg 61%
    23:00 +7°C° 0 mm 1 mps 715 mmHg 60%

    20 December, Thursday

    Time Temperature Precipitation Wind Pressure Humidity
    00:00 +6°C° 0 mm 2 mps 715 mmHg 59%
    01:00 +6°C° 0 mm 2 mps 715 mmHg 57%
    02:00 +6°C° 0 mm 2 mps 715 mmHg 57%
    03:00 +6°C° 0 mm 2 mps 715 mmHg 57%
    04:00 +6°C° 0 mm 2 mps 715 mmHg 56%
    05:00 +6°C° 0 mm 2 mps 715 mmHg 59%
    06:00 +6°C° 0 mm 2 mps 715 mmHg 62%
    07:00 +5°C° 0 mm 3 mps 715 mmHg 65%
    08:00 +8°C° 0 mm 3 mps 715 mmHg 66%
    09:00 +9°C° 0 mm 3 mps 716 mmHg 66%
    10:00 +11°C° 0 mm 3 mps 716 mmHg 66%
    11:00 +12°C° 0 mm 3 mps 716 mmHg 65%
    12:00 +12°C° 0 mm 4 mps 716 mmHg 63%
    13:00 +13°C° 0 mm 4 mps 715 mmHg 62%
    14:00 +13°C° 0 mm 4 mps 715 mmHg 65%
    15:00 +12°C° 0 mm 4 mps 715 mmHg 68%
    16:00 +12°C° 0 mm 3 mps 715 mmHg 72%
    17:00 +11°C° 0.1 mm 3 mps 715 mmHg 76%
    18:00 +10°C° 0.1 mm 3 mps 715 mmHg 81%
    19:00 +9°C° 0.1 mm 3 mps 716 mmHg 85%
    20:00 +9°C° 0 mm 2 mps 716 mmHg 86%
    21:00 +8°C° 0 mm 2 mps 716 mmHg 86%
    22:00 +8°C° 0 mm 2 mps 716 mmHg 87%
    23:00 +7°C° 0 mm 2 mps 716 mmHg 86%
    Show more